Change the Weather History Date:

Tuesday, August 26, 2014

  Actual Average Record
Temperature  
Mean Temperature 55 °F 54 °F  
Max Temperature 63 °F 61 °F 77 °F (1990)
Min Temperature 46 °F 48 °F 38 °F (1998)
Degree Days  
Heating Degree Days 10 11  
Month to date heating degree days 205 248  
Since 1 June heating degree days 867 1035  
Since 1 July heating degree days 445 574  
Cooling Degree Days 0    
Month to date cooling degree days 0  
Year to date cooling degree days 4  
Since 1 June cooling degree days 0  
Growing Degree Days 4 (Base 50)    
Moisture  
Dew Point 48 °F    
Average Humidity 0    
Maximum Humidity 0    
Minimum Humidity 0    
Precipitation  
Precipitation 0.00 in 0.16 in 1.23 in (1976)
Month to date precipitation 6.32 3.71  
Year to date precipitation 48.65 45.94  
Snow  
Snow 0.00 in 0.00 in 0.00 in (2014)
Month to date snowfall 0.0 0.0  
Since 1 June snowfall 0.0 0.0  
Since 1 July snowfall 0.0 0.0  
Snow Depth 0.00 in    
Sea Level Pressure  
Sea Level Pressure 29.91 in    
Wind  
Wind Speed 4 mph (NNW)    
Max Wind Speed 9 mph    
Max Gust Speed 14 mph    
Visibility 10 miles    
Events      
T = Trace of Precipitation, MM = Missing Value Source: NWS Daily Summary

Daily Weather History Graph

Daily Weather History Graph

Search for Another Location

Airport or City:

Trip Planner

Search our weather history database for the weather conditions in past years. The results will help you decide how hot, cold, wet, or windy it might be!

Date:

Astronomy

Aug. 26, 2014 Rise Set
Actual Time 6:58 AM AKDT 9:23 PM AKDT
Civil Twilight 6:15 AM AKDT 10:06 PM AKDT
Nautical Twilight 5:18 AM AKDT 11:01 PM AKDT
Astronomical Twilight 4:06 AM AKDT 12:12 AM AKDT
Moon 8:32 AM AKDT (8/26) 9:20 PM AKDT (8/26)
Length of Visible Light 15h 51m
Length of Day
14h 25m
New Moon, 1% of the Moon is Illuminated
Aug 26
New Moon
Sep 2
First Quarter
Sep 8
Full
Sep 15
Last Quarter
Sep 23
New

Hourly Weather History & Observations

Time (AKDT) Temp. Windchill Dew Point Humidity Pressure Visibility Wind Dir Wind Speed Gust Speed Precip Events Conditions
12:53 AM 51.1 °F - 46.0 °F 83% 29.82 in 10.0 mi Calm Calm - N/A   Clear
1:53 AM 48.0 °F - 45.0 °F 89% 29.83 in 10.0 mi West 5.8 mph - N/A   Clear
2:53 AM 46.9 °F - 44.1 °F 90% 29.83 in 10.0 mi West 4.6 mph - N/A   Clear
3:53 AM 46.9 °F - 44.1 °F 90% 29.83 in 10.0 mi West 5.8 mph - N/A   Clear
4:53 AM 46.0 °F 43.9 °F 43.0 °F 89% 29.85 in 10.0 mi West 4.6 mph - N/A   Clear
5:53 AM 46.9 °F - 44.1 °F 90% 29.86 in 10.0 mi Calm Calm - N/A   Clear
6:53 AM 48.2 °F - 46.4 °F 93% 29.87 in 10.0 mi West 4.6 mph - N/A   Mostly Cloudy
7:53 AM 52.0 °F - 46.9 °F 83% 29.88 in 10.0 mi Calm Calm - N/A   Mostly Cloudy
8:53 AM 55.0 °F - 48.0 °F 77% 29.89 in 10.0 mi SW 3.5 mph - N/A   Mostly Cloudy
9:53 AM 61.0 °F - 48.9 °F 64% 29.90 in 10.0 mi NNW 3.5 mph - N/A   Scattered Clouds
10:53 AM 60.1 °F - 48.9 °F 67% 29.91 in 10.0 mi NE 3.5 mph - N/A   Mostly Cloudy
11:53 AM 60.1 °F - 50.0 °F 69% 29.93 in 10.0 mi NE 4.6 mph - N/A   Mostly Cloudy
12:53 PM 62.1 °F - 48.9 °F 62% 29.94 in 10.0 mi East 6.9 mph - N/A   Mostly Cloudy
1:53 PM 62.1 °F - 46.9 °F 58% 29.95 in 10.0 mi East 4.6 mph - N/A   Mostly Cloudy
2:53 PM 61.0 °F - 48.0 °F 62% 29.95 in 10.0 mi ENE 8.1 mph - N/A   Mostly Cloudy
3:53 PM 61.0 °F - 48.9 °F 64% 29.95 in 10.0 mi NE 6.9 mph - N/A   Scattered Clouds
4:53 PM 60.1 °F - 50.0 °F 69% 29.95 in 10.0 mi NNE 6.9 mph - N/A   Partly Cloudy
5:53 PM 60.1 °F - 48.9 °F 67% 29.95 in 10.0 mi NNE 3.5 mph - N/A   Scattered Clouds
6:53 PM 59.0 °F - 51.1 °F 75% 29.95 in 10.0 mi NNE 4.6 mph - N/A   Mostly Cloudy
7:53 PM 60.1 °F - 51.1 °F 72% 29.95 in 10.0 mi Calm Calm - N/A   Mostly Cloudy
8:53 PM 59.0 °F - 50.0 °F 72% 29.94 in 10.0 mi Calm Calm - N/A   Mostly Cloudy
9:53 PM 57.9 °F - 52.0 °F 81% 29.95 in 10.0 mi West 4.6 mph - N/A   Overcast
10:53 PM 59.0 °F - 52.0 °F 78% 29.95 in 10.0 mi NW 3.5 mph - N/A   Mostly Cloudy
11:53 PM 55.9 °F - 51.1 °F 84% 29.95 in 10.0 mi Calm Calm - N/A   Mostly Cloudy